Location: Sternwarte_Laufen
(47.9344°N, 12.9346°E)
Time: 00:42:01
(UTC+02:00)

ISS - Pass Details

Date: 25 May 2017
Orbit: 402 x 408 km, 51.6° (Epoch: 27 May)

Event Time Altitude Azimuth Distance (km) Brightness Sun altitude
Rises 04:17:47 0° 289° (WNW) 2,329 -0.2 -8.7°
Reaches altitude 10° 04:20:03 10° 277° (W) 1,464 -1.4 -8.5°
Maximum altitude 04:22:52 27° 218° (SW) 819 -2.9 -8.1°
Drops below altitude 10° 04:25:41 10° 158° (SSE) 1,453 -1.2 -7.8°
Sets 04:27:56 0° 146° (SE) 2,307 -0.1 -7.5°
